Greentree Foundation NY US WEATHERSTEM current weather conditions

sailwx.info

Wind from 101 at 5 knots gusting 8

Air temperature 13.4° C
Dewpoint 11.8° C

Last reported at 2019-Oct-22 13:00 UTC.
Time now 2019-Oct-22 13:36 UTC

Location: N 40°47' W 073°42'.
View on Google Maps.

See reports from other nearby stations

  
Tides and Currents Weather Stations Pressure Air Temp Water Temp Dewpoint Dewpoint Depression Visibility Wind Speed Wind Dir Waves Ship Positions
date/time (UTC)wind fromknots sea level pressurealtimeterstation pressurevisibilityair tempwater tempwave heightnotes
2019-Oct-22 13:00 101 5 gusting 8 13.4
2019-Oct-22 12:50 145 2 gusting 10 13.2
2019-Oct-22 12:40 167 3 gusting 8 13.1
2019-Oct-22 12:30 097 2 gusting 6 12.9
2019-Oct-22 12:20 106 1 gusting 5 12.9
2019-Oct-22 12:10 12.7
2019-Oct-22 12:00 036 0 gusting 2 12.6
2019-Oct-22 11:50 091 0 gusting 1 12.5
2019-Oct-22 11:40 085 0 gusting 1 12.6
2019-Oct-22 11:30 12.6
2019-Oct-22 11:20 12.6
2019-Oct-22 11:10 119 0 gusting 5 12.6
2019-Oct-22 11:00 111 0 gusting 5 12.6
2019-Oct-22 10:50 12.5
2019-Oct-22 10:40 040 0 gusting 2 12.4
2019-Oct-22 10:30 12.5
2019-Oct-22 10:20 114 1 gusting 6 12.4
2019-Oct-22 10:10 089 0 gusting 2 12.4
2019-Oct-22 10:00 111 0 gusting 6 12.4
2019-Oct-22 09:50 109 1 gusting 2 12.3
2019-Oct-22 09:40 12.1
2019-Oct-22 09:30 11.9
2019-Oct-22 09:20 11.9
2019-Oct-22 09:10 11.7
2019-Oct-22 09:00 11.9
2019-Oct-22 08:50 12.1
2019-Oct-22 08:40 075 0 gusting 1 12.1
2019-Oct-22 08:30 12.2
2019-Oct-22 08:20 075 0 gusting 2 12.4
2019-Oct-22 08:10 12.3
2019-Oct-22 08:00 123 0 gusting 5 12.3
2019-Oct-22 07:50 084 1 gusting 7 12.4
2019-Oct-22 07:40 138 0 gusting 5 12.4
2019-Oct-22 07:30 090 1 gusting 5 12.4
2019-Oct-22 07:20 120 0 gusting 1 12.5
2019-Oct-22 07:10 106 0 gusting 2 12.6
2019-Oct-22 07:00 12.4
2019-Oct-22 06:50 119 4 gusting 7 12.3
2019-Oct-22 06:40 153 0 gusting 1 12.4
2019-Oct-22 06:30 107 0 gusting 3 12.4
2019-Oct-22 06:20 139 1 gusting 5 12.3
2019-Oct-22 06:10 119 1 gusting 3 12.2
2019-Oct-22 06:00 074 1 gusting 6 12.3
2019-Oct-22 05:50 113 0 gusting 6 12.3
2019-Oct-22 05:40 111 1 gusting 3 12.2
2019-Oct-22 05:30 129 0 gusting 5 12.3
2019-Oct-22 05:20 103 1 gusting 5 12.3
2019-Oct-22 05:10 157 1 gusting 4 12.2
2019-Oct-22 05:00 115 1 gusting 3 12.1
2019-Oct-22 04:50 122 0 gusting 5 12.0
2019-Oct-22 04:40 123 0 gusting 2 11.6
2019-Oct-22 04:30 11.3
2019-Oct-22 04:20 11.3
2019-Oct-22 04:10 173 11.5
2019-Oct-22 04:00 173 0 gusting 2 11.8
2019-Oct-22 03:50 109 0 gusting 2 12.1
2019-Oct-22 03:40 12.2
2019-Oct-22 03:30 127 1 gusting 3 12.2
2019-Oct-22 03:20 106 2 gusting 2 11.9
2019-Oct-22 03:10 11.4
2019-Oct-22 03:00 11.4
2019-Oct-22 02:50 11.2
2019-Oct-22 02:40 11.4
2019-Oct-22 02:30 11.1
2019-Oct-22 02:20 10.8
2019-Oct-22 02:10 10.6
2019-Oct-22 02:00 10.8
2019-Oct-22 01:50 11.1
2019-Oct-22 01:40 11.5
2019-Oct-22 01:30 121 0 gusting 0 11.6
2019-Oct-22 01:20 11.3
2019-Oct-22 01:10 11.8
2019-Oct-22 01:00 121 0 gusting 1 12.0
2019-Oct-22 00:50 121 0 gusting 1 11.8
2019-Oct-22 00:40 121 0 gusting 1 11.7
2019-Oct-22 00:30 121 0 gusting 1 11.8
2019-Oct-22 00:20 120 0 gusting 1 11.7
2019-Oct-22 00:10 121 0 gusting 1 12.1
2019-Oct-22 00:00 121 0 gusting 1 12.2
2019-Oct-21 23:50 121 0 gusting 1 12.3
2019-Oct-21 23:40 121 0 gusting 1 12.3
2019-Oct-21 23:30 121 0 gusting 1 12.4
2019-Oct-21 23:20 121 0 gusting 1 12.6
2019-Oct-21 23:10 121 0 gusting 2 12.8
2019-Oct-21 23:00 120 0 gusting 1 13.0
2019-Oct-21 22:50 120 0 gusting 2 13.1
2019-Oct-21 22:40 103 0 gusting 1 13.3
2019-Oct-21 22:30 103 0 gusting 1 13.5
2019-Oct-21 22:20 103 0 gusting 1 13.8
2019-Oct-21 22:10 14.3
2019-Oct-21 22:00 103 0 gusting 1 15.1
2019-Oct-21 21:50 103 0 gusting 1 15.9
2019-Oct-21 21:40 102 0 gusting 3 16.8
2019-Oct-21 21:30 17.3
2019-Oct-21 21:20 103 1 gusting 5 17.4
2019-Oct-21 21:10 085 0 gusting 5 17.7
2019-Oct-21 21:00 17.8
2019-Oct-21 20:50 065 3 gusting 5 18.1
2019-Oct-21 20:40 142 2 gusting 5 18.3
2019-Oct-21 20:30 109 6 gusting 8 18.4
2019-Oct-21 20:20 066 0 gusting 8 18.6
2019-Oct-21 20:10 113 0 gusting 7 18.7
2019-Oct-21 19:50 096 0 gusting 7 18.7
2019-Oct-21 19:40 081 1 gusting 5 18.8
2019-Oct-21 19:30 165 1 gusting 7 18.9
2019-Oct-21 19:20 076 1 gusting 5 18.9
2019-Oct-21 19:10 019 4 gusting 9 18.8
2019-Oct-21 19:00 057 0 gusting 8 18.8
2019-Oct-21 18:50 070 0 gusting 9 18.6
2019-Oct-21 18:40 071 0 gusting 5 18.7
2019-Oct-21 18:30 117 0 gusting 6 18.7
2019-Oct-21 18:20 344 2 gusting 7 18.3
2019-Oct-21 18:10 055 3 gusting 12 18.3
2019-Oct-21 18:00 050 5 gusting 6 18.1
2019-Oct-21 17:50 046 0 gusting 8 17.8
2019-Oct-21 17:40 126 3 gusting 6 17.7
2019-Oct-21 17:10 068 4 gusting 10 16.9
2019-Oct-21 17:00 067 0 gusting 6 16.8
2019-Oct-21 16:50 108 0 gusting 10 16.4
2019-Oct-21 16:40 323 5 gusting 8 16.6
2019-Oct-21 16:30 018 1 gusting 6 16.2
2019-Oct-21 16:20 164 6 gusting 9 15.9
2019-Oct-21 16:10 207 1 gusting 8 15.8
2019-Oct-21 16:00 107 6 gusting 10 15.5
2019-Oct-21 15:50 087 0 gusting 8 15.3
2019-Oct-21 15:40 325 6 gusting 9 15.1
2019-Oct-21 15:30 348 1 gusting 9 14.8
2019-Oct-21 15:20 078 6 gusting 7 14.8
2019-Oct-21 15:10 033 14.6
2019-Oct-21 15:00 044 0 gusting 8 14.5
2019-Oct-21 14:50 068 1 gusting 8 14.3
2019-Oct-21 14:40 049 5 gusting 9 14.1
2019-Oct-21 14:30 055 2 gusting 10 13.9
2019-Oct-21 14:20 092 1 gusting 11 13.7
2019-Oct-21 14:10 110 0 gusting 9 13.5
2019-Oct-21 14:00 128 4 gusting 13 13.3
2019-Oct-21 13:50 047 3 gusting 11 13.1
2019-Oct-21 13:40 047 4 gusting 7 12.9
2019-Oct-21 13:30 321 2 gusting 10 12.8
2019-Oct-21 13:20 023 1 gusting 10 12.5
2019-Oct-21 13:10 092 2 gusting 11 12.2
2019-Oct-21 13:00 096 2 gusting 9 11.8
2019-Oct-21 12:50 038 3 gusting 10 11.6
2019-Oct-21 12:40 351 3 gusting 9 11.3
2019-Oct-21 12:30 348 0 gusting 5 11.1
2019-Oct-21 12:20 042 2 gusting 6 10.9
2019-Oct-21 12:10 355 4 gusting 7 10.8
2019-Oct-21 12:00 019 6 gusting 7 10.6
2019-Oct-21 11:50 026 2 gusting 7 10.3
2019-Oct-21 11:40 018 3 gusting 7 10.3
2019-Oct-21 11:30 054 2 gusting 5 10.2
2019-Oct-21 11:20 018 2 gusting 4 10.1
2019-Oct-21 11:10 012 1 gusting 2 10.1
2019-Oct-21 11:00 013 0 gusting 3 10.1
2019-Oct-21 10:50 345 1 gusting 5 10.3
2019-Oct-21 10:40 037 3 gusting 4 10.3
2019-Oct-21 10:30 019 1 gusting 4 10.3
2019-Oct-21 10:20 030 0 gusting 5 10.3
2019-Oct-21 10:10 037 1 gusting 5 10.3
2019-Oct-21 10:00 029 1 gusting 3 10.3
2019-Oct-21 09:50 334 0 gusting 6 10.4
2019-Oct-21 09:40 011 0 gusting 4 10.5
2019-Oct-21 09:30 089 2 gusting 6 10.7
2019-Oct-21 09:20 023 1 gusting 5 10.8
2019-Oct-21 09:10 351 1 gusting 6 11.0
2019-Oct-21 09:00 033 1 gusting 7 11.2
2019-Oct-21 08:50 327 1 gusting 7 11.4
2019-Oct-21 08:40 360 2 gusting 9 11.6
2019-Oct-21 08:30 057 0 gusting 8 11.6
2019-Oct-21 08:20 056 0 gusting 6 11.6
2019-Oct-21 08:10 041 8 gusting 9 11.6
2019-Oct-21 08:00 047 1 gusting 8 11.6
2019-Oct-21 07:50 117 2 gusting 9 11.5
2019-Oct-21 07:40 013 9 gusting 10 11.3
2019-Oct-21 07:30 034 3 gusting 10 11.2
2019-Oct-21 07:20 360 2 gusting 7 11.1
2019-Oct-21 07:10 051 3 gusting 10 11.2
2019-Oct-21 07:00 021 1 gusting 12 11.2
2019-Oct-21 06:50 035 3 gusting 12 11.1
2019-Oct-21 06:40 020 6 gusting 8 11.1
2019-Oct-21 06:30 038 3 gusting 10 10.9
2019-Oct-21 06:20 063 6 gusting 10 10.9
2019-Oct-21 06:10 063 3 gusting 12 11.0
2019-Oct-21 06:00 058 0 gusting 7 11.1
2019-Oct-21 05:50 017 2 gusting 12 11.1
2019-Oct-21 05:40 013 2 gusting 8 11.2
2019-Oct-21 05:30 049 2 gusting 8 11.2
2019-Oct-21 05:20 013 1 gusting 11 11.3
2019-Oct-21 05:10 118 1 gusting 11 11.3
2019-Oct-21 05:00 100 2 gusting 12 11.3
2019-Oct-21 04:50 091 1 gusting 11 11.3
2019-Oct-21 04:40 061 3 gusting 5 11.3
2019-Oct-21 04:30 059 2 gusting 4 11.3
2019-Oct-21 04:20 051 0 gusting 6 11.3
2019-Oct-21 04:10 097 2 gusting 7 11.3
2019-Oct-21 04:00 022 0 gusting 7 11.3
2019-Oct-21 03:50 038 2 gusting 7 11.3
2019-Oct-21 03:40 064 0 gusting 4 11.2
2019-Oct-21 03:30 096 2 gusting 7 11.2
2019-Oct-21 03:20 054 0 gusting 6 11.1
2019-Oct-21 03:10 053 2 gusting 8 11.1
2019-Oct-21 03:00 169 0 gusting 8 11.1
2019-Oct-21 02:50 090 3 gusting 11 11.1
2019-Oct-21 02:40 103 2 gusting 7 11.2
2019-Oct-21 02:30 054 7 gusting 8 11.2
2019-Oct-21 02:20 134 3 gusting 7 11.1
2019-Oct-21 02:10 055 0 gusting 4 11.0
2019-Oct-21 02:00 069 2 gusting 8 10.9
2019-Oct-21 01:50 026 2 gusting 6 10.8
2019-Oct-21 01:40 069 1 gusting 6 10.8
2019-Oct-21 01:30 121 3 gusting 9 10.8
2019-Oct-21 01:20 10.7
2019-Oct-21 01:10 128 1 gusting 7 10.7
2019-Oct-21 01:00 082 1 gusting 6 10.6
2019-Oct-21 00:50 128 1 gusting 5 10.6
2019-Oct-21 00:40 079 1 gusting 6 10.7
2019-Oct-21 00:30 101 1 gusting 4 10.7
2019-Oct-21 00:20 092 0 gusting 6 10.6
2019-Oct-21 00:10 130 0 gusting 6 10.6
2019-Oct-21 00:00 116 2 gusting 6 10.4
2019-Oct-20 23:50 144 0 gusting 6 10.3
2019-Oct-20 23:40 088 2 gusting 6 10.3
2019-Oct-20 23:30 103 0 gusting 5 10.5
2019-Oct-20 23:20 161 1 gusting 6 10.8
2019-Oct-20 23:10 120 6 gusting 7 11.2
2019-Oct-20 23:00 140 0 gusting 6 11.2
2019-Oct-20 22:50 109 0 gusting 6 11.3
2019-Oct-20 22:40 105 0 gusting 4 11.4
2019-Oct-20 22:30 11.6
2019-Oct-20 22:20 088 0 gusting 3 11.4
2019-Oct-20 22:10 109 1 gusting 6 11.4
2019-Oct-20 22:00 134 0 gusting 7 11.7
2019-Oct-20 21:50 093 0 gusting 3 12.3
2019-Oct-20 21:40 12.4
2019-Oct-20 21:30 107 12.6
2019-Oct-20 21:20 094 0 gusting 3 12.7
2019-Oct-20 21:10 130 12.8
2019-Oct-20 21:00 117 12.8
2019-Oct-20 20:50 103 2 gusting 5 12.9
2019-Oct-20 20:40 103 2 gusting 3 13.1
2019-Oct-20 20:30 13.2
2019-Oct-20 20:20 074 0 gusting 3 13.3
2019-Oct-20 20:10 098 0 gusting 2 13.6
2019-Oct-20 20:00 13.6
2019-Oct-20 19:50 13.7
2019-Oct-20 19:40 098 0 gusting 1 13.8
2019-Oct-20 19:30 13.8
2019-Oct-20 19:20 13.8
2019-Oct-20 19:10 13.8
2019-Oct-20 19:00 14.0
2019-Oct-20 18:50 14.1
2019-Oct-20 18:40 14.3
2019-Oct-20 18:30 14.4
2019-Oct-20 18:20 14.5
2019-Oct-20 18:10 14.7
2019-Oct-20 18:00 098 0 gusting 2 14.8
2019-Oct-20 17:50 095 0 gusting 2 14.8
2019-Oct-20 17:40 14.8
2019-Oct-20 17:30 14.9
2019-Oct-20 17:20 149 0 gusting 1 14.9
2019-Oct-20 17:10 14.9
2019-Oct-20 17:00 14.9
2019-Oct-20 16:50 177 0 gusting 6 15.3
2019-Oct-20 16:40 082 0 gusting 6 15.3
2019-Oct-20 16:30 090 0 gusting 6 15.3
2019-Oct-20 16:20 133 0 gusting 6 15.3
2019-Oct-20 16:10 090 2 gusting 6 15.2
2019-Oct-20 16:00 15.2
2019-Oct-20 15:50 100 0 gusting 3 15.2
2019-Oct-20 15:40 108 0 gusting 6 14.8
2019-Oct-20 15:30 084 1 gusting 6 14.6
2019-Oct-20 15:20 109 2 gusting 5 14.6
2019-Oct-20 15:10 166 0 gusting 6 14.3
2019-Oct-20 15:00 099 1 gusting 6 14.2
2019-Oct-20 14:50 088 0 gusting 3 14.2
2019-Oct-20 14:40 128 2 gusting 6 14.3
2019-Oct-20 14:30 175 1 gusting 5 13.9
2019-Oct-20 14:20 076 1 gusting 6 13.6
2019-Oct-20 14:10 13.5
2019-Oct-20 14:00 142 0 gusting 3 13.3
2019-Oct-20 13:50 098 2 gusting 5 13.2
2019-Oct-20 13:40 132 3 gusting 4 13.1
2019-Oct-20 13:30 105 1 gusting 2 12.9
2019-Oct-20 13:20 12.8
2019-Oct-20 13:10 12.7
2019-Oct-20 13:00 12.6